Regional Weather Roundup
Issued by NWS

Home | Current Version | Previous Version | Graphics & Text | Print | Product List | Glossary On
Versions: 1 2 3 4 5 6 7 8 9 10 11 12 13 14 15 16 17 18 19 20 21 22 23 24 25 26 27 28 29 30 31 32 33 34 35 36 37 38 39 40 41 42 43 44 45 46 47 48 49 50
000
ASUS45 KCYS 231510
RWRWY

WYOMING REGIONAL WEATHER ROUNDUP
NATIONAL WEATHER SERVICE CHEYENNE WY
900 AM MDT WED JUL 23 2014

NOTE:  "FAIR" INDICATES FEW OR NO CLOUDS BELOW 12,000 FEET
WITH NO SIGNIFICANT WEATHER AND/OR OBSTRUCTIONS TO VISIBILITY.

WYZ001-231600-
YELLOWSTONE NATIONAL PARK

CITY           SKY/WX    TMP DP  RH WIND       PRES   REMARKS
LK YELLOWSTONE   N/A     66  41  40 CALM      30.43S
W YELLOWSTONE  NOT AVBL

$$
WYZ002>013-054>058-071-098>099-231600-
NORTHERN WYOMING

CITY           SKY/WX    TMP DP  RH WIND       PRES   REMARKS
JACKSON        SUNNY     57  43  58 CALM      30.35S
CODY           MOSUNNY   70  46  43 S3        30.25F
GREYBULL       SUNNY     72  51  47 NE6       30.19F
WORLAND        SUNNY     71  52  50 W5        30.20S
SHERIDAN       MOSUNNY   73  60  63 SE12      30.18F
BUFFALO        SUNNY     71  59  65 SE14      30.25F
GILLETTE       CLOUDY    72  61  68 SE17G25   30.26F
HULETT         FAIR      73  55  53 MISG      30.29
NEWCASTLE      CLOUDY    72  52  49 SE17      30.31

$$
WYZ014>020-022>026-101>103-231600-
CENTRAL WYOMING

CITY           SKY/WX    TMP DP  RH WIND       PRES   REMARKS
BIG PINEY      SUNNY     65  34  31 E7        30.41S
PINEDALE       SUNNY     63  39  42 NW3       30.42S
DUBOIS         FAIR      63  39  42 NW5       30.42F
LANDER         SUNNY     70  51  51 N6        30.30R
RIVERTON       SUNNY     70  44  39 CALM      30.30S
CASPER         SUNNY     68  58  70 CALM      30.30F
DOUGLAS        PTSUNNY   71  62  73 SE24G36   30.30F

$$
WYZ021-027>030-104>119-231600-
SOUTHERN WYOMING

CITY           SKY/WX    TMP DP  RH WIND       PRES   REMARKS
EVANSTON       SUNNY     73  30  20 SW5       30.39R
KEMMERER       SUNNY     68  36  30 N5        30.41S
FORT BRIDGER   FAIR      73  25  16 CALM      30.41S
ROCK SPRINGS   SUNNY     72  24  16 CALM      30.38R
DIXON          FAIR      81  37  20 E5        30.42R
RAWLINS        SUNNY     74  37  26 SE7       30.41R
SARATOGA       FAIR      77  41  27 SE13      30.44S
LARAMIE        SUNNY     72  49  44 S8        30.45S
CHEYENNE       CLOUDY    65  60  84 SE8       30.43S
TORRINGTON     CLOUDY    71  60  68 SE15      30.32S
PINE BLUFFS    CLOUDY    68  63  83 SE13      30.39S

$$



USA.gov is the U.S. government's official web portal to all federal, state and local government web resources and services.